SCS-01 F (63987 NORAD) Tracking and Keplerian Element Data

This shows tracking and keplerian element data for the satellite.

Feedback or suggestion? Click here.




ElementValue
Catalog63987
NameSCS-01 F
Epoch Orbit3344
Epoch Day354.25689035
Epoch Year2025
RAAN65.9698
Inclination97.3856
Eccentricity0.0010994
Argument of Perigee206.7556
Mean Anonmoly153.3113
Mean Motion15.19445616
Decay Rate0.00011595
L11 63987U 25100F 25354.25689035 .00011595 00000+0 54893-3 0 9990
L22 63987 97.3856 65.9698 0010994 206.7556 153.3113 15.19445616 33443



Live tracking and technical data element details for SCS-01 F (NORAD 63987). SCS-01 F can be tracked NOW for your location showing map with azimuth and elevation plus other details from your city location.







IsCatalogInMostPopularTable: catalog: 63987, numindb: 7
Update: records affected: 1



GetName: 63987 SCS-01 F

Hit Count: updated at: Tue, 21 Apr 2026 19:06:09 GMT